Regional Weather Roundup
Issued by NWS

Home | Current Version | Previous Version | Graphics & Text | Print | Product List | Glossary On
Versions: 1 2 3 4 5 6 7 8 9 10 11 12 13 14 15 16 17 18 19 20 21 22 23 24 25 26 27 28 29 30 31 32 33 34 35 36 37 38 39 40 41 42 43 44 45 46 47 48 49 50
754
ASUS43 KIND 060659
RWRIN

WEATHER ROUNDUP FOR INDIANA
NATIONAL WEATHER SERVICE INDIANAPOLIS IN
200 AM EST SAT FEB 06 2016

NOTE: "FAIR" INDICATES FEW OR NO CLOUDS BELOW 12,000 FEET WITH NO
SIGNIFICANT WEATHER AND/OR OBSTRUCTIONS TO VISIBILITY.

* - STATION DOES NOT REPORT WEATHER SUCH AS PRECIPITATION OR FOG.

+ - STATION NOT QUALITY CONTROLLED BY THE NATIONAL WEATHER SERVICE.
    USE DATA WITH CAUTION...ESPECIALLY DEWPOINT AND RELATIVE
    HUMIDITY OBSERVATIONS.

INZ001>003-010>013-019-020-060800-
NORTHWEST INDIANA

CITY           SKY/WX    TMP DP  RH WIND       PRES   REMARKS
RENSSELAER +   CLEAR     27  21  80 SW3       30.33R

$$

LMZ046-743>745-060800-
SOUTHERN LAKE MICHIGAN

STATION/POSITION TIME  TEMP    WIND        PRES    WAVE
                       AIR SEA DIR/SP/G            HT
                 (UTC) (F)     (DEG/KT/KT) (MB)    (FT)
BURNS HARBOR     0600   27     220/  8/ 10 1027.1F
MICHIGAN CITY    0600   26     190/  9/ 10   N/A

$$

INZ004-005-014>016-021>024-060800-
NORTH CENTRAL INDIANA

CITY           SKY/WX    TMP DP  RH WIND       PRES   REMARKS
GOSHEN         CLEAR     25  21  85 SW5       30.30S FOG     WCI  19
PERU/GRISSOM   PTCLDY    22  21  96 W3        30.30S
SOUTH BEND     CLEAR     21  20  96 SW6       30.31S FOG     WCI  13

$$

INZ006>009-017-018-025>027-060800-
NORTHEAST INDIANA

CITY           SKY/WX    TMP DP  RH WIND       PRES   REMARKS
ANGOLA *+      CLEAR     25  21  86 CALM      30.27S
FORT WAYNE     CLOUDY    28  24  85 NW3       30.31S

$$

INZ028-029-035-036-043>045-051>053-060800-
WEST CENTRAL INDIANA

CITY           SKY/WX    TMP DP  RH WIND       PRES   REMARKS
GREENCASTLE +  CLOUDY    21  16  79 CALM      30.33F HAZE
LAFAYETTE      CLOUDY    20  18  92 CALM      30.33F
TERRE HAUTE    CLOUDY    22  20  92 SE3       30.34F

$$

INZ030>032-037>040-046>048-054>057-064-065-060800-
CENTRAL INDIANA

CITY           SKY/WX    TMP DP  RH WIND       PRES   REMARKS
GREENWOOD *+   CLOUDY    23  23 100 CALM      30.34F
INDIANAPOLIS   CLOUDY    22  18  85 S6        30.32F WCI  14
-EAGLE CREEK   CLOUDY    22  20  92 CALM      30.32F
KOKOMO *+      CLOUDY    25  19  80 SW5       30.32S WCI  19
MT COMFORT *+  CLOUDY    23  21  93 CALM      30.33S
SHELBYVILLE    CLOUDY    25  21  85 CALM      30.33S FOG

$$

INZ033-034-041-042-049-050-058-059-060800-
EAST CENTRAL INDIANA

CITY           SKY/WX    TMP DP  RH WIND       PRES   REMARKS
MUNCIE         CLOUDY    26  21  81 SW3       30.31F

$$

INZ060-061-067>069-081>083-085>088-060800-
SOUTHWEST INDIANA

CITY           SKY/WX    TMP DP  RH WIND       PRES   REMARKS
EVANSVILLE     CLOUDY    31  23  72 CALM      30.36F
HUNTINGBURG *+ PTCLDY    27  21  80 N3        30.35F

$$

INZ062-063-066-070>080-084-089>092-060800-
SOUTH CENTRAL AND SOUTHEAST INDIANA

CITY           SKY/WX    TMP DP  RH WIND       PRES   REMARKS
BLOOMINGTON    CLOUDY    21  17  84 CALM      30.33F
MADISON *+     CLOUDY    28  25  86 CALM      30.35F
SEYMOUR +      PTCLDY    27  25  93 CALM      30.35F

$$





USA.gov is the U.S. government's official web portal to all federal, state and local government web resources and services.